Amelia, Virginia, United States
Lat: 37.37N, Lon: 77.92W
Wx Zone: VAZ068
Local Info
Past Weather Observations for Wednesday, July 20, 2016

NOTE: This archive is for the closest National Weather Service station to Amelia. Information may differ from the station used for current weather conditions.

Click here for Long-term Archive

Time Weather Temperature Dewpoint Humidity Pressure Winds Precip Visibility
23:55
Clear
N/A N/A N/A 30.18 in
(1022 mb)
Calm - 7SM
23:35
Clear
Hazy
N/A N/A N/A 30.18 in
(1022 mb)
Calm - 5SM
23:15
Clear
Hazy
N/A N/A N/A 30.18 in
(1022 mb)
Calm - 5SM
22:55
Clear
Hazy
N/A N/A N/A 30.18 in
(1022 mb)
Calm - 5SM
22:35
Clear
N/A N/A N/A 30.18 in
(1022 mb)
Calm - 7SM
22:15
Clear
Hazy
N/A N/A N/A 30.18 in
(1022 mb)
Calm - 5SM
21:55
Clear
N/A N/A N/A 30.18 in
(1022 mb)
Calm - 7SM
21:35
Clear
Hazy
N/A N/A N/A 30.18 in
(1022 mb)
Calm - 5SM
21:15
Clear
N/A N/A N/A 30.18 in
(1022 mb)
Calm - 7SM
20:55
Clear
N/A N/A N/A 30.18 in
(1022 mb)
Calm - 10SM
20:35
Clear
N/A N/A N/A 30.18 in
(1022 mb)
Calm - 10SM
20:15
Clear
N/A N/A N/A 30.15 in
(1021 mb)
Calm - 7SM
19:55
Clear
73°F / 23°C 73°F / 23°C 100% 30.15 in
(1021 mb)
Calm - 10SM
19:35
Clear
75°F / 24°C 75°F / 24°C 100% 30.15 in
(1021 mb)
Calm - 7SM
19:15
Partly Cloudy
79°F / 26°C 73°F / 23°C 84% 30.15 in
(1021 mb)
Calm - 10SM
18:55
Partly Cloudy
79°F / 26°C 72°F / 22°C 79% 30.15 in
(1021 mb)
E 3.5 mph
(E 6 kph)
- 10SM
18:15
Clear
84°F / 29°C 70°F / 21°C 62% 30.15 in
(1021 mb)
Calm - 10SM
17:55
Clear
84°F / 29°C 68°F / 20°C 58% 30.12 in
(1020 mb)
N 4.6 mph
(N 7 kph)
- 10SM
17:35
Clear
88°F / 31°C 64°F / 18°C 46% 30.12 in
(1020 mb)
N 3.5 mph
(N 6 kph)
- 10SM
17:15
Clear
88°F / 31°C 64°F / 18°C 46% 30.12 in
(1020 mb)
N 4.6 mph
(N 7 kph)
- 10SM
16:55
Partly Cloudy
88°F / 31°C 64°F / 18°C 46% 30.12 in
(1020 mb)
N 5.8 mph
(N 9 kph)
- 10SM
16:35
Mostly Cloudy
90°F / 32°C 64°F / 18°C 43% 30.12 in
(1020 mb)
Calm - 10SM
16:15
Clear
88°F / 31°C 66°F / 19°C 49% 30.12 in
(1020 mb)
Calm - 10SM
15:55
Clear
88°F / 31°C 66°F / 19°C 49% 30.15 in
(1021 mb)
Calm - 10SM
15:35
Fair
N/A N/A N/A N/A Calm -
15:15
Partly Cloudy
88°F / 31°C 66°F / 19°C 49% 30.15 in
(1021 mb)
Calm - 10SM
14:55
Mostly Cloudy
88°F / 31°C 66°F / 19°C 49% 30.15 in
(1021 mb)
NE 3.5 mph
(NE 6 kph)
- 10SM
14:35
Mostly Cloudy
88°F / 31°C 66°F / 19°C 49% 30.15 in
(1021 mb)
NE 5.8 mph
(NE 9 kph)
- 10SM
14:15
Mostly Cloudy
88°F / 31°C 66°F / 19°C 49% 30.15 in
(1021 mb)
NE 4.6 mph
(NE 7 kph)
- 10SM
13:55
Partly Cloudy
88°F / 31°C 66°F / 19°C 49% 30.15 in
(1021 mb)
E 5.8 mph
(E 9 kph)
- 10SM
13:35
Partly Cloudy
90°F / 32°C 66°F / 19°C 46% 30.18 in
(1022 mb)
NNE 6.9 mph
(NNE 11 kph)
- 10SM
13:15
Clear
88°F / 31°C 68°F / 20°C 52% 30.18 in
(1022 mb)
ENE 3.5 mph
(ENE 6 kph)
- 10SM
12:55
Clear
88°F / 31°C 68°F / 20°C 52% 30.18 in
(1022 mb)
N 6.9 mph
(N 11 kph)
- 10SM
12:35
Clear
88°F / 31°C 70°F / 21°C 55% 30.18 in
(1022 mb)
N 8.1 mph
(N 13 kph)
- 10SM
12:15
Clear
86°F / 30°C 68°F / 20°C 55% 30.18 in
(1022 mb)
N 6.9 mph
(N 11 kph)
- 10SM
11:55
Clear
86°F / 30°C 70°F / 21°C 59% 30.18 in
(1022 mb)
Calm - 10SM
11:35
Clear
86°F / 30°C 70°F / 21°C 59% 30.21 in
(1023 mb)
NNE 5.8 mph
(NNE 9 kph)
- 10SM
11:15
Clear
84°F / 29°C 70°F / 21°C 62% 30.21 in
(1023 mb)
Calm - 10SM
10:55
Clear
84°F / 29°C 70°F / 21°C 62% 30.21 in
(1023 mb)
Calm - 10SM
10:35
Clear
82°F / 28°C 70°F / 21°C 66% 30.21 in
(1023 mb)
Calm - 10SM
10:15
Partly Cloudy
82°F / 28°C 70°F / 21°C 66% 30.21 in
(1023 mb)
NE 4.6 mph
(NE 7 kph)
- 10SM
09:55
Partly Cloudy
82°F / 28°C 72°F / 22°C 70% 30.21 in
(1023 mb)
NE 5.8 mph
(NE 9 kph)
- 10SM
09:35
Mostly Cloudy
81°F / 27°C 72°F / 22°C 74% 30.21 in
(1023 mb)
NE 3.5 mph
(NE 6 kph)
- 10SM
09:15
Mostly Cloudy
79°F / 26°C 72°F / 22°C 79% 30.21 in
(1023 mb)
ENE 5.8 mph
(ENE 9 kph)
- 10SM
08:55
Mostly Cloudy
77°F / 25°C 72°F / 22°C 83% 30.21 in
(1023 mb)
Calm - 10SM
08:35
Partly Cloudy
77°F / 25°C 70°F / 21°C 79% 30.21 in
(1023 mb)
Calm - 10SM
08:15
Partly Cloudy
77°F / 25°C 72°F / 22°C 83% 30.18 in
(1022 mb)
Calm - 10SM
07:55
Partly Cloudy
75°F / 24°C 72°F / 22°C 89% 30.21 in
(1023 mb)
Calm - 10SM
07:35
Clear
75°F / 24°C 72°F / 22°C 89% 30.21 in
(1023 mb)
Calm - 10SM
07:15
Clear
73°F / 23°C 73°F / 23°C 100% 30.18 in
(1022 mb)
Calm - 10SM
06:55
Clear
72°F / 22°C 72°F / 22°C 100% 30.18 in
(1022 mb)
Calm - 7SM
06:35
Clear
N/A N/A N/A 30.18 in
(1022 mb)
Calm - 10SM
06:15
Clear
N/A N/A N/A 30.18 in
(1022 mb)
Calm - 10SM
05:55
Clear
Hazy
N/A N/A N/A 30.18 in
(1022 mb)
SW 3.5 mph
(SW 6 kph)
- 5SM
05:35
Clear
N/A N/A N/A 30.18 in
(1022 mb)
SW 3.5 mph
(SW 6 kph)
- 7SM
05:15
Clear
Hazy
N/A N/A N/A 30.15 in
(1021 mb)
Calm - 5SM
04:55
Clear
N/A N/A N/A 30.15 in
(1021 mb)
SSE 4.6 mph
(SSE 7 kph)
- 7SM
04:35
Clear
N/A N/A N/A 30.15 in
(1021 mb)
Calm - 10SM
04:15
Clear
N/A N/A N/A 30.15 in
(1021 mb)
NE 3.5 mph
(NE 6 kph)
- 10SM
03:55
Clear
N/A N/A N/A 30.15 in
(1021 mb)
NE 4.6 mph
(NE 7 kph)
- 10SM
03:35
Clear
N/A N/A N/A 30.15 in
(1021 mb)
Calm - 10SM
03:15
Clear
N/A N/A N/A 30.15 in
(1021 mb)
Calm - 10SM
02:55
Clear
N/A N/A N/A 30.12 in
(1020 mb)
Calm - 10SM
02:35
Clear
72°F / 22°C 72°F / 22°C 100% 30.15 in
(1021 mb)
SSW 3.5 mph
(SSW 6 kph)
- 10SM
02:15
Clear
72°F / 22°C 72°F / 22°C 100% 30.15 in
(1021 mb)
NNW 4.6 mph
(NNW 7 kph)
- 10SM
01:55
Clear
72°F / 22°C 72°F / 22°C 100% 30.15 in
(1021 mb)
Calm - 10SM
01:35
Clear
70°F / 21°C 70°F / 21°C 100% 30.15 in
(1021 mb)
N 3.5 mph
(N 6 kph)
- 10SM
01:15
Partly Cloudy
N/A N/A N/A 30.15 in
(1021 mb)
N 3.5 mph
(N 6 kph)
- 10SM
00:55
Partly Cloudy
N/A N/A N/A 30.15 in
(1021 mb)
Calm - 10SM
00:35
Partly Cloudy
N/A N/A N/A 30.15 in
(1021 mb)
NW 3.5 mph
(NW 6 kph)
- 10SM
00:15
Clear
N/A N/A N/A 30.15 in
(1021 mb)
Calm - 10SM
Time Weather Temperature Dewpoint Humidity Pressure Winds Precip Visibility


Weather for websites

WeatherForYou.com, LLC is not responsible for any damages or problems caused by this service. Current weather conditions are obtained from the closest station including government and personal stations which may have varying degrees of accuracy. Weather forecasts are derived from the NOAA NDFD. Like all things, this site belongs to Jesus Christ... He just trusts us to maintain it. If you have any questions or comments email webmaster@weatherforyou.com

Copyright © 2016, WeatherForYou.com LLC. All rights reserved.